Location: Adamstown South Public School
(32.9318°S, 151.7012°E)
Time: 20:23:10
(UTC+00:00)

CZ-4 R/B - Pass Details

Date: 07 June 2020
Orbit: 531 x 599 km, 97.8° (Epoch: 05 July)

Event Time Altitude Azimuth Distance (km) Brightness Sun altitude
Exits shadow 08:27:18 11° 36° (NE) 1,847 3.8 -19.2°
Drops below altitude 10° 08:27:33 10° 34° (NE) 1,924 3.9 -19.3°
Sets 08:30:08 0° 18° (NNE) 2,823 4.9 -19.8°
